Location: Arleux
(50.3632°N, 2.8721°E)
Time: 01:04:51
(UTC+00:00)

COSMOS 2406 - Pass Details

Date: 15 December 2019
Orbit: 844 x 863 km, 71.0° (Epoch: 26 January)

Event Time Altitude Azimuth Distance (km) Brightness Sun altitude
Exits shadow 06:00:05 13° 331° (NNW) 2,291 5.0 -15.2°
Maximum altitude 06:05:18 90° 56° (NE) 854 3.2 -14.4°
Drops below altitude 10° 06:10:58 10° 153° (SSE) 2,461 6.3 -13.5°
Sets 06:13:24 0° 153° (SSE) 3,391 7.1 -13.2°
